Wind_Speed
34 38 40 40 39 39 39 39 40 40 40 39 39 38 42 50 48 45 52 54 49 46 40 35 32 28 26 25 24 24 24 25 25 25 23 21 21 21 22 21 21 21 21 20 21 21 21 21 20 21 26 29 25 23 22 20 19 16 14 13 12 12 12 12 12 12 10 8 7 6 5 4 3 3 3 3 3 3 3 3 2 2 2 1 2
28 33 37 39 39 40 40 39 39 39 40 40 40 38 39 47 52 52 56 57 52 48 43 36 30 26 25 26 27 27 28 28 27 26 25 22 21 20 21 22 22 22 23 22 20 20 20 21 21 21 26 33 29 25 24 21 19 16 14 14 13 13 13 12 12 12 11 9 7 6 5 4 3 3 3 3 3 4 4 3 3 3 3 2 1
22 28 33 36 38 40 41 41 40 40 40 41 41 41 37 39 49 57 62 63 57 53 52 46 34 28 29 30 31 31 31 30 29 27 25 23 21 21 21 22 24 24 24 24 22 20 20 21 21 21 27 35 31 27 24 22 20 17 15 15 15 15 15 13 13 12 12 10 8 7 6 5 4 3 2 2 3 4 4 4 4 3 3 3 2
20 24 28 33 37 40 42 42 42 41 42 42 43 44 42 39 41 47 54 60 60 57 54 48 39 35 34 35 35 35 34 32 30 27 24 22 21 22 23 24 25 26 26 25 24 22 21 21 21 20 27 35 32 28 25 23 21 18 17 17 17 17 16 14 13 13 12 11 10 9 7 6 5 4 3 2 2 2 2 3 3 3 3 3 3
20 21 24 29 34 38 42 43 43 43 42 43 44 44 44 43 40 39 41 45 50 53 48 42 39 38 37 37 38 37 37 34 30 26 24 23 24 24 26 27 27 27 27 26 25 24 23 22 21 19 25 33 31 29 27 25 23 21 19 19 19 19 18 16 15 14 13 12 11 10 8 7 6 5 3 2 1 0 0 1 2 3 3 4 4
19 21 22 24 29 35 40 43 44 44 44 44 45 45 44 44 43 42 43 40 39 42 42 40 40 39 37 37 37 37 36 34 31 29 29 28 28 28 28 29 29 28 28 28 27 26 25 23 22 21 23 28 31 30 28 27 25 23 21 21 21 21 20 19 17 15 14 13 12 11 10 8 6 5 3 2 1 1 1 1 2 2 3 5 5
19 20 22 23 25 30 36 41 43 45 45 45 46 46 45 45 45 44 46 43 40 39 38 39 41 41 39 37 35 35 36 37 37 37 37 34 32 32 31 30 30 30 30 29 29 28 27 26 24 24 24 25 30 32 29 28 27 25 24 23 23 23 21 20 19 18 16 14 13 12 11 9 7 5 4 2 1 1 2 1 1 2 3 5 6
21 20 21 23 24 27 31 37 41 43 45 46 46 47 47 47 47 47 47 46 44 44 43 43 44 44 43 40 38 38 40 42 43 43 41 39 37 35 35 33 32 33 32 31 31 30 29 28 27 26 26 25 29 34 33 31 31 28 26 26 25 24 23 22 21 20 19 16 14 13 12 10 9 7 5 3 2 1 2 1 1 1 3 4 5
20 21 21 22 24 26 28 33 37 41 43 45 47 48 48 48 48 49 49 48 47 48 48 49 51 52 53 51 47 44 45 45 46 47 45 41 40 38 37 36 34 34 34 34 33 32 31 30 29 28 28 27 28 35 37 34 34 31 29 28 27 25 25 25 24 23 21 19 16 14 13 11 10 9 7 5 3 2 1 1 1 1 2 3 4
18 19 21 22 23 25 27 30 34 38 41 44 46 47 48 49 49 50 51 51 50 50 50 52 54 58 58 55 49 47 49 48 47 49 48 44 43 41 40 38 36 35 36 36 36 35 34 32 32 30 30 29 29 35 43 39 36 34 32 31 29 28 28 28 27 25 24 22 19 16 15 14 12 11 9 7 5 4 2 1 0 1 2 3 3
19 19 20 21 22 24 26 29 32 36 39 42 45 47 48 49 50 51 51 52 52 53 53 53 55 57 58 55 51 49 52 52 50 51 50 47 45 44 42 40 38 37 37 38 38 37 36 35 34 32 31 31 30 36 47 44 38 38 35 34 32 31 31 30 29 28 26 24 22 19 16 15 14 13 12 10 8 6 4 3 2 1 1 2 3
19 19 19 20 21 23 25 28 31 34 37 40 42 45 47 49 51 52 53 53 53 54 54 55 56 58 59 57 54 52 54 55 54 53 52 50 48 47 45 43 42 40 38 39 39 39 38 37 36 34 32 31 30 35 48 46 40 40 38 37 36 33 33 32 31 30 27 25 24 22 19 17 16 15 14 13 10 8 6 5 4 3 2 2 2
17 18 18 18 19 22 24 27 30 33 36 39 41 44 46 48 50 52 54 55 55 55 56 56 57 59 60 60 57 55 56 57 56 56 54 53 52 50 49 47 45 43 41 40 40 40 40 39 38 36 33 32 29 32 44 46 41 41 40 39 38 36 35 33 33 32 29 27 26 24 21 18 17 16 16 15 13 10 8 7 6 5 4 3 2
17 18 18 18 18 20 22 25 28 32 35 37 40 42 44 46 48 50 52 54 56 57 58 58 59 59 61 61 60 58 58 59 59 58 57 56 56 54 52 50 48 46 44 42 41 42 42 42 41 39 36 35 32 32 39 44 44 43 41 41 40 39 37 35 34 34 32 30 28 25 23 20 18 18 17 16 15 13 11 9 8 7 6 5 4
20 20 21 20 20 20 21 23 26 29 33 36 38 40 42 45 47 49 50 52 54 56 57 59 60 61 61 62 62 60 59 60 61 62 60 59 58 56 55 53 52 50 47 45 44 44 45 45 44 44 42 39 37 36 37 41 45 45 44 44 43 41 38 36 35 34 33 31 29 27 25 22 20 19 19 18 17 16 14 12 10 9 8 7 5
21 22 23 23 23 22 22 23 24 26 29 32 35 38 40 43 45 47 49 51 53 54 55 57 59 61 62 63 63 63 62 61 62 63 63 62 60 59 58 56 54 53 51 48 46 46 47 48 48 47 45 41 40 39 39 39 43 47 47 45 45 43 40 38 37 35 33 32 31 30 28 25 22 20 20 19 19 18 16 14 13 11 11 9 8
22 22 23 24 25 25 25 25 25 26 28 29 32 34 37 39 43 46 49 51 52 54 55 56 58 59 61 62 63 63 63 63 63 64 65 65 63 62 61 60 57 55 53 51 49 48 49 51 51 49 45 42 41 41 41 40 41 45 48 47 46 45 43 41 40 37 34 33 32 32 30 28 24 22 21 20 20 20 18 17 15 14 13 12 10
24 24 24 25 25 25 26 27 27 28 29 30 32 33 36 38 40 43 47 50 53 54 56 57 58 58 59 61 61 62 62 63 64 65 67 67 66 65 63 62 61 58 56 54 52 51 51 52 53 50 46 45 43 43 43 42 41 43 47 48 46 46 45 43 41 39 36 34 33 32 32 30 27 24 23 22 22 21 20 20 18 17 15 14 13
27 26 26 26 27 26 26 27 28 29 31 32 34 35 36 38 40 42 45 48 52 55 57 58 59 59 60 61 61 61 61 62 63 65 67 69 68 67 65 64 64 62 60 58 56 54 54 53 54 52 49 47 46 46 45 44 43 43 45 48 48 47 46 45 43 41 39 36 33 32 33 32 29 26 25 24 23 23 22 22 21 19 18 17 16
27 28 28 28 28 28 27 27 28 28 30 32 34 36 38 39 42 44 46 48 51 54 58 60 61 61 61 62 63 63 62 62 62 64 66 68 68 67 67 66 65 65 63 61 59 57 55 54 54 53 51 49 48 48 46 46 46 45 44 47 50 49 48 46 45 43 42 39 35 32 33 33 31 29 27 26 25 24 24 23 23 21 20 19 18
28 28 29 28 28 29 29 29 29 29 30 31 33 36 38 40 42 45 47 50 52 55 58 61 63 64 64 64 64 64 64 63 62 63 65 67 67 66 66 66 66 66 65 64 63 60 57 56 55 54 53 52 50 49 48 47 47 47 46 47 50 52 50 47 46 45 43 41 38 34 33 34 34 31 29 28 26 25 25 25 24 23 21 21 20
28 28 29 28 28 29 30 31 31 32 32 33 34 35 38 40 43 45 47 50 53 56 58 61 64 66 67 67 66 66 66 65 64 63 63 65 66 64 64 65 65 66 66 66 65 62 59 57 55 54 53 53 51 49 50 50 48 47 48 48 50 53 53 50 47 47 45 43 41 37 35 35 34 32 30 29 28 27 26 26 26 24 23 23 21
29 30 30 30 30 30 31 33 33 34 35 35 35 35 36 39 41 44 47 50 52 55 58 61 64 67 69 70 69 68 68 67 67 65 63 63 64 63 61 61 62 65 67 67 67 64 61 58 57 55 53 54 53 50 51 51 50 48 48 49 50 52 55 53 50 48 47 45 43 40 38 36 34 33 31 29 29 28 28 28 27 26 25 25 23
31 32 32 32 32 32 33 34 35 36 37 36 35 34 35 37 40 42 46 49 52 54 56 59 62 66 69 71 72 70 70 69 68 67 64 63 63 62 60 59 59 62 65 66 67 67 63 60 59 57 54 54 53 51 51 52 51 49 47 48 49 51 55 56 52 49 49 47 45 43 41 38 35 33 32 30 29 29 29 29 29 29 28 26 24
32 32 33 33 33 34 35 35 36 36 35 34 33 33 34 35 36 38 40 43 47 50 53 56 59 62 66 69 71 72 72 70 69 68 66 64 63 62 60 58 58 60 63 64 66 68 66 62 60 59 57 55 54 53 52 53 53 50 47 46 47 50 53 55 54 51 50 49 47 45 44 41 38 35 33 31 30 30 31 31 32 31 30 28 26
32 32 32 32 33 34 34 35 35 34 32 30 30 31 32 32 33 34 36 38 41 44 48 51 55 59 61 63 67 70 72 72 70 68 67 66 64 62 61 59 57 59 63 64 65 65 66 64 62 60 59 57 55 55 54 54 54 52 49 47 46 48 50 53 54 53 51 50 49 47 46 44 40 38 35 33 32 32 33 33 34 34 31 29 27
32 31 31 31 32 33 33 34 34 32 29 28 28 29 30 32 33 34 36 39 42 44 47 49 51 55 59 60 61 64 68 72 72 69 68 67 65 63 62 60 58 59 61 62 63 63 64 65 63 61 61 59 58 57 56 56 56 55 53 50 49 48 49 51 54 54 52 51 50 49 48 46 43 40 38 36 34 33 34 35 36 36 34 31 29
31 32 32 31 31 31 31 31 30 30 29 30 30 31 33 34 34 36 38 40 42 45 48 51 51 51 54 57 58 59 62 68 72 71 68 68 66 64 64 61 58 58 59 59 61 61 61 64 65 63 62 62 60 59 58 58 59 59 57 54 52 51 50 51 53 55 55 54 53 51 50 47 45 43 40 38 36 35 35 36 37 38 36 33 31
28 29 30 29 28 28 28 27 26 27 29 30 32 34 35 36 36 36 36 37 39 42 45 50 51 50 50 52 55 57 59 62 68 70 69 68 66 65 64 62 59 58 58 56 58 59 59 62 66 64 63 64 63 61 60 61 61 60 58 57 55 53 53 52 53 55 56 55 55 54 52 49 47 44 42 39 37 37 36 37 38 39 38 35 33
22 24 24 24 24 24 23 22 23 25 26 28 30 32 33 33 34 34 35 35 36 37 40 44 48 49 47 46 49 54 56 59 63 68 68 67 67 65 64 63 59 58 58 57 58 59 59 61 65 65 64 65 65 62 62 63 63 62 60 59 58 57 57 56 55 56 57 56 55 55 55 53 49 46 44 41 39 39 39 39 39 40 40 38 36
19 19 19 18 19 20 19 19 21 23 25 26 26 27 29 30 30 31 33 34 35 34 35 38 42 47 47 43 44 49 54 56 60 64 66 66 65 65 63 62 60 58 59 58 58 59 59 60 64 66 64 66 66 65 64 64 64 63 61 59 58 58 59 57 55 54 55 55 54 55 56 56 53 50 47 44 41 40 41 40 39 40 41 40 38
18 17 15 16 17 17 17 17 19 21 23 23 22 24 25 26 27 29 30 31 32 32 32 33 36 43 46 43 41 44 50 54 58 62 64 64 63 63 62 61 60 59 60 59 57 58 60 60 63 65 65 66 68 67 67 66 65 64 62 60 58 57 57 57 55 54 55 55 55 55 57 59 57 53 50 47 43 42 43 42 40 40 42 42 41
19 15 14 15 15 16 16 16 18 19 20 20 21 22 24 24 25 27 27 27 28 28 28 28 31 38 43 42 40 41 45 51 56 61 62 61 60 60 60 59 59 59 59 58 57 59 62 61 61 65 66 67 69 70 68 67 66 65 63 61 60 59 57 57 57 57 56 57 58 58 59 60 60 57 53 50 47 45 45 45 43 42 42 43 42
19 15 14 13 13 15 16 15 17 18 18 19 20 21 24 25 25 25 25 24 24 24 23 22 25 33 38 39 39 38 41 46 53 59 60 58 57 58 58 57 57 57 58 58 58 60 61 59 60 65 67 67 70 71 70 68 67 65 63 61 60 60 60 58 58 59 58 59 60 61 61 62 62 60 57 54 51 48 48 47 46 44 43 43 43
18 14 14 12 11 14 15 14 15 17 18 19 20 22 23 24 24 24 23 20 19 19 19 18 20 26 32 35 36 36 37 42 50 56 57 56 56 58 58 57 57 56 56 58 59 59 58 57 61 65 67 68 71 73 71 70 68 66 64 62 60 61 61 60 59 59 59 60 61 63 63 64 65 62 59 57 55 52 51 50 50 48 45 45 45
17 14 13 11 10 11 12 12 14 16 17 20 20 21 21 21 21 21 20 17 15 15 17 17 17 20 25 30 33 34 35 38 45 52 54 53 53 54 56 57 56 56 56 58 59 58 56 57 60 65 67 68 71 73 72 70 69 67 65 63 61 61 62 61 60 60 60 61 63 64 62 63 66 64 60 58 57 56 54 53 52 50 48 47 47
17 14 13 11 9 9 9 11 14 15 17 19 19 20 20 19 19 20 19 15 11 11 14 16 16 17 20 25 28 31 33 35 40 46 50 50 50 50 52 54 54 55 57 58 59 59 57 57 60 64 67 69 70 72 73 71 69 68 66 64 63 62 62 61 59 59 60 61 62 63 61 61 64 64 61 59 59 58 57 55 54 52 50 49 49
17 14 14 12 10 10 9 11 13 15 16 17 18 19 19 18 16 17 18 14 9 7 10 13 14 15 18 22 25 28 30 31 33 38 43 46 47 47 48 50 52 55 56 58 59 59 58 58 61 64 67 69 70 72 73 72 70 69 67 65 65 64 62 60 58 58 58 59 59 60 58 58 61 62 61 60 61 61 60 58 56 53 52 51 50
20 16 14 12 11 11 10 11 13 13 14 16 17 18 17 15 13 12 13 13 9 4 6 10 12 14 17 20 23 25 27 28 31 35 38 41 43 45 47 48 51 54 56 58 59 60 59 59 61 63 65 67 70 72 73 72 70 69 68 66 66 65 63 61 59 58 57 56 57 57 54 53 55 58 59 59 61 63 63 61 58 55 53 53 53
23 19 16 13 12 11 10 12 12 13 14 17 18 16 14 13 12 7 6 9 9 4 2 6 9 14 18 22 25 29 30 32 34 37 39 41 44 47 49 51 52 54 56 58 59 60 59 60 61 62 63 65 69 72 73 72 71 70 69 68 67 66 63 61 61 59 56 55 55 56 54 53 54 55 56 57 58 61 62 62 59 57 55 55 55
25 22 19 16 13 12 11 11 11 11 13 16 17 15 12 11 11 8 4 2 5 4 2 7 11 16 21 25 28 31 32 34 36 38 40 43 45 47 49 52 54 54 54 54 54 55 57 59 60 62 63 65 68 71 73 72 71 71 70 68 67 66 64 63 62 60 57 55 55 55 55 55 56 56 57 57 58 60 61 60 59 58 57 56 56
25 23 21 17 14 13 12 10 10 10 12 14 15 15 12 10 9 9 4 3 2 1 2 7 12 16 21 24 26 27 29 31 33 36 37 40 43 45 47 48 50 51 51 49 48 48 51 55 58 60 63 65 68 71 73 73 71 71 71 69 68 66 65 63 62 61 58 56 55 55 55 55 55 56 58 58 59 61 63 61 59 59 59 58 57
24 22 21 18 15 14 13 12 11 10 11 12 12 13 12 9 8 8 5 2 2 3 2 4 9 14 19 23 25 27 28 30 32 33 33 35 40 44 46 47 48 50 50 48 46 45 46 49 53 58 62 65 67 70 73 73 72 72 72 70 68 68 67 65 62 62 61 59 57 56 55 55 54 55 56 57 58 60 63 61 59 60 60 59 58
24 23 21 19 16 14 13 13 11 9 9 10 9 9 10 9 7 6 5 4 2 1 3 3 6 9 13 17 22 25 27 29 30 32 32 34 37 42 45 46 47 49 50 50 49 47 47 47 49 55 60 63 65 68 71 72 73 73 72 71 70 70 70 67 64 62 63 62 60 57 55 54 54 54 55 55 55 57 58 59 58 58 58 58 58
25 24 23 22 20 16 13 12 10 8 7 7 6 6 8 8 7 5 4 3 3 1 1 3 5 8 10 13 16 19 23 26 28 30 32 33 35 38 42 45 47 47 48 49 49 49 48 46 45 50 57 60 62 65 68 70 72 73 73 72 71 70 71 70 67 64 63 63 62 59 57 55 54 53 53 54 53 53 54 54 55 55 55 56 58
25 24 23 23 23 21 16 12 10 7 5 4 4 4 5 6 6 4 2 2 2 2 3 4 5 8 11 13 14 16 18 21 24 27 30 33 34 35 37 41 44 46 48 49 50 49 49 46 43 47 54 58 60 62 64 66 70 72 73 72 71 71 71 71 69 66 64 63 62 60 58 57 55 53 53 53 53 53 53 53 52 52 53 54 57
24 24 23 22 23 23 20 15 11 8 6 5 5 5 5 5 5 4 3 1 0 2 2 4 6 8 11 13 14 15 15 17 19 22 26 30 33 36 37 39 42 43 45 47 49 49 49 48 46 46 50 54 57 59 60 62 65 69 71 71 71 71 71 71 70 68 65 64 63 61 59 58 56 54 53 53 53 54 54 54 53 53 53 53 54
23 24 24 23 23 23 22 17 12 9 7 6 7 8 7 6 6 6 5 4 3 3 3 5 7 9 10 13 14 15 16 16 17 19 22 26 30 34 39 42 44 45 46 47 48 49 50 50 48 46 47 50 52 55 56 57 60 64 67 69 71 71 71 71 70 68 67 65 64 63 62 60 59 56 55 54 54 54 53 54 54 54 53 53 53
23 23 23 24 24 25 24 19 13 9 8 7 6 6 6 5 5 5 6 6 5 5 5 5 6 7 9 11 13 15 16 16 17 19 22 25 28 32 38 43 46 48 49 49 49 50 50 50 48 46 47 48 49 51 53 55 58 60 62 65 69 70 71 71 70 69 68 67 66 65 64 63 61 59 57 56 56 55 54 54 53 53 53 53 53
22 23 24 24 25 26 25 22 15 9 8 7 6 5 4 4 4 4 5 6 6 6 7 7 7 7 7 8 10 12 13 14 15 17 19 22 25 28 34 41 45 48 51 51 49 49 48 48 48 48 49 49 48 50 52 53 56 58 58 60 65 69 70 71 70 70 70 69 67 66 65 64 63 61 59 58 57 56 55 55 54 53 53 53 53
20 21 23 24 25 25 25 23 17 11 8 8 7 6 4 4 4 4 4 5 6 7 7 8 9 9 9 9 10 11 12 14 14 15 15 17 17 17 21 27 31 37 45 49 49 48 47 46 46 47 50 51 50 50 50 51 53 55 56 57 60 65 69 71 71 72 72 70 68 67 66 65 64 62 60 58 58 57 56 55 55 54 53 53 52
Wind_Direction
243 242 239 234 231 230 230 229 231 231 230 232 233 237 237 229 227 225 211 204 204 202 201 203 202 201 202 203 206 207 208 210 212 214 218 222 226 231 235 236 237 237 238 238 242 243 236 234 242 245 230 213 204 207 210 207 208 212 215 218 217 214 218 225 225 221 221 216 208 206 205 214 226 226 232 221 208 218 231 241 239 241 255 195 124
244 244 243 238 232 231 231 230 229 230 230 231 232 235 235 226 220 216 208 205 208 209 210 212 210 205 204 206 208 208 209 211 212 214 218 221 225 230 236 239 240 240 240 239 240 242 242 241 249 255 232 213 204 206 210 206 205 211 216 218 216 210 212 218 221 220 219 218 213 213 209 211 226 225 223 216 212 222 228 234 235 246 264 244 180
243 242 243 242 237 233 233 233 231 229 228 229 232 234 233 224 216 212 210 212 216 218 220 222 215 204 204 206 206 208 211 213 214 216 220 225 230 232 235 238 240 242 241 241 239 239 242 243 251 255 226 209 203 203 208 206 202 207 212 213 212 205 204 209 214 216 217 216 214 215 211 209 219 215 212 215 218 228 231 234 230 237 266 273 259
246 242 241 242 240 236 234 235 234 231 228 227 230 233 234 233 226 218 215 217 221 223 222 220 211 202 203 204 205 208 211 214 216 219 224 231 237 238 238 238 238 241 242 242 239 236 238 242 251 248 214 204 203 199 203 207 203 204 207 206 205 201 198 199 205 210 210 211 214 218 213 211 215 202 192 208 213 224 227 232 229 226 252 267 260
246 246 242 239 239 239 237 236 236 235 232 229 229 232 234 237 237 231 225 224 224 220 213 207 204 204 205 205 207 210 213 216 217 223 232 237 240 240 241 239 237 238 241 242 240 236 236 239 248 243 211 204 206 201 199 205 205 205 204 203 201 198 194 192 198 205 206 207 213 219 218 216 218 205 193 196 184 85 121 245 239 225 243 263 269
244 244 244 241 238 238 239 239 238 237 236 233 232 234 234 236 239 238 237 236 229 219 210 205 204 207 210 211 212 214 217 220 223 232 241 243 241 238 239 241 240 240 241 242 242 238 237 236 241 242 223 211 210 206 202 204 207 206 204 203 202 198 194 190 193 201 206 209 212 218 224 223 222 215 202 187 148 56 46 346 267 239 247 265 276
248 244 242 242 238 236 238 240 241 240 239 236 234 235 235 235 237 238 240 241 235 227 220 212 207 209 213 215 220 226 230 234 238 243 247 248 245 239 237 241 244 243 241 242 243 240 238 236 236 239 237 225 215 210 207 205 208 208 204 205 203 198 194 192 194 199 203 210 214 220 227 228 227 221 209 194 156 71 56 44 311 277 263 269 276
252 249 244 241 238 235 235 237 240 242 242 240 238 237 237 236 236 237 239 241 239 235 229 221 216 216 217 224 236 242 243 244 247 249 250 250 248 243 238 239 242 244 242 242 242 242 239 238 237 237 240 237 223 214 209 208 209 208 205 206 205 199 194 193 196 200 203 207 214 221 226 228 230 229 220 208 188 127 77 66 18 312 288 283 283
253 252 250 244 240 237 233 233 235 238 241 242 241 240 239 238 237 237 238 239 239 239 237 233 230 230 233 241 248 249 246 245 247 248 249 249 248 246 243 241 240 240 242 242 242 242 241 239 238 238 240 242 235 220 212 209 209 208 206 207 206 201 196 195 197 202 206 209 211 219 225 227 230 233 228 218 207 189 134 92 65 10 334 324 312
259 254 252 249 245 241 237 234 232 233 236 239 241 241 241 240 239 238 238 238 238 238 239 239 239 240 243 247 247 245 246 247 246 246 247 246 246 245 244 244 240 237 239 241 242 242 242 241 239 240 240 243 245 228 213 208 207 207 207 207 206 203 200 198 199 204 209 212 212 215 222 227 230 234 236 229 218 207 194 183 181 17 357 350 343
268 262 256 253 250 246 242 238 235 233 232 234 237 239 240 240 240 239 239 239 239 238 238 238 240 243 246 247 246 243 244 247 246 246 246 245 244 243 243 243 241 236 236 239 242 242 242 242 239 240 240 243 251 234 213 207 206 206 207 207 206 206 204 202 203 207 212 215 215 214 218 224 229 233 238 238 228 218 216 220 235 268 318 349 352
271 267 262 256 253 250 248 245 241 237 234 233 234 236 238 239 239 239 239 239 239 238 238 237 238 240 243 244 244 242 242 245 246 246 247 247 245 243 241 241 240 237 235 237 241 241 242 242 240 240 240 241 251 234 211 205 206 206 207 208 208 208 208 208 208 210 213 216 216 213 214 220 226 232 237 240 235 225 225 232 242 256 274 316 344
272 270 266 261 256 252 251 250 248 245 240 237 236 235 236 237 238 237 238 239 239 239 238 238 237 238 241 241 240 239 240 242 243 244 246 246 245 246 243 240 239 237 236 237 239 241 242 243 240 239 238 238 244 230 212 208 207 207 208 208 209 211 211 212 213 213 214 214 215 214 213 217 223 230 235 239 239 232 229 235 245 255 264 282 308
278 275 271 267 261 256 253 251 251 251 249 245 241 239 238 238 238 238 238 238 239 239 239 238 238 238 240 241 240 237 236 238 241 242 243 243 245 245 243 241 240 238 237 236 237 239 241 242 240 238 235 232 234 230 221 216 212 208 209 210 211 212 213 215 216 217 216 214 216 216 214 214 221 228 233 238 241 238 232 233 242 254 261 270 283
275 275 274 270 266 261 258 255 252 252 253 252 249 245 242 240 240 240 240 239 239 239 239 239 239 238 239 241 241 240 236 235 238 240 241 241 242 242 242 242 241 239 237 236 235 237 239 240 239 236 231 227 226 228 227 225 219 212 210 210 212 214 214 217 219 220 218 216 217 217 215 214 217 226 232 235 240 240 236 233 238 249 257 263 270
270 272 273 273 270 267 263 260 257 254 252 253 254 252 249 246 243 242 242 241 241 240 240 239 240 239 239 239 240 241 239 236 236 238 240 240 240 240 241 242 241 239 238 236 234 236 238 239 239 237 233 227 224 224 227 228 225 219 214 210 212 214 215 217 220 221 221 220 218 218 218 215 214 223 229 233 236 239 238 236 237 244 252 258 262
274 273 274 274 273 270 267 263 260 258 255 253 253 254 254 251 248 246 244 243 243 242 241 240 240 240 240 239 239 239 239 238 236 236 238 240 240 239 239 241 240 239 238 236 234 235 237 238 239 238 236 231 227 225 226 229 229 225 220 214 212 213 215 218 221 222 223 224 222 220 220 216 214 220 226 230 233 235 237 237 238 242 248 253 257
281 279 277 275 273 271 270 268 264 263 262 260 257 255 255 254 253 250 247 245 244 243 243 242 241 240 239 240 240 239 238 238 236 235 236 238 239 238 238 239 240 239 238 237 235 235 236 237 238 237 235 232 229 226 226 228 230 228 225 221 216 214 215 218 221 222 224 226 226 223 222 219 215 217 223 228 231 233 234 235 238 241 247 251 253
284 283 281 279 277 275 273 271 268 265 263 263 262 260 257 255 254 253 251 248 245 244 244 243 242 241 240 240 240 239 239 238 237 236 235 236 237 238 237 238 240 240 238 238 237 235 235 235 236 236 234 232 229 228 226 225 228 229 227 225 222 219 216 217 221 223 224 226 227 226 225 222 217 216 221 226 229 232 233 233 236 239 245 251 253
279 279 277 277 277 276 274 272 271 269 265 263 262 261 259 256 254 253 253 251 248 246 244 244 243 242 241 240 240 240 240 238 237 237 236 235 236 236 235 236 238 239 238 238 237 235 234 234 234 234 234 232 229 228 226 225 226 228 228 227 226 225 221 218 220 223 224 225 227 228 228 226 221 218 220 223 226 230 232 233 234 237 242 249 253
275 275 274 274 275 276 276 274 274 274 272 269 266 262 260 258 255 253 252 252 251 249 246 244 244 243 241 240 239 240 240 239 238 237 237 236 235 235 235 234 235 237 236 236 236 234 233 232 231 232 233 232 229 228 227 225 225 227 230 230 229 228 225 221 220 222 225 226 226 228 230 229 225 221 220 223 224 227 232 234 234 235 239 246 251
278 278 277 276 277 279 279 277 277 278 277 276 273 269 265 261 259 256 254 252 251 250 249 246 244 244 243 241 239 238 239 240 239 237 237 237 236 235 235 233 233 235 235 234 234 233 231 230 229 229 231 232 230 227 226 226 225 226 230 232 231 229 227 224 221 222 224 226 226 228 230 230 229 225 222 223 224 226 230 234 235 235 237 242 248
284 284 283 282 283 283 283 282 281 281 281 279 276 272 268 264 261 258 256 253 251 250 249 247 245 243 243 242 240 238 237 238 239 238 237 237 237 236 235 234 232 233 234 233 233 232 230 229 228 227 228 230 230 227 226 226 226 226 228 232 233 231 227 225 224 222 223 226 227 228 230 230 229 228 226 226 226 226 229 233 235 236 237 240 244
288 289 288 288 288 288 287 285 284 284 284 283 280 275 269 265 262 259 256 255 254 252 250 249 246 243 242 241 241 240 238 236 237 237 237 237 237 236 235 234 231 231 233 233 233 232 229 227 227 226 225 228 229 228 227 226 227 227 228 230 233 231 227 225 225 224 223 225 227 229 231 231 230 229 228 229 229 228 230 233 235 237 237 238 241
289 289 289 291 291 291 289 288 287 287 287 286 283 279 274 269 265 262 260 258 257 257 255 254 251 248 243 241 240 239 238 237 236 235 236 236 236 236 235 233 231 230 231 231 232 231 228 225 225 225 224 225 227 227 227 227 225 225 225 227 230 230 227 225 226 227 226 225 227 230 232 232 230 229 228 228 230 231 231 233 235 236 237 239 241
288 288 289 290 290 290 290 290 290 290 289 286 282 277 275 272 270 267 265 263 262 261 259 257 254 252 248 243 240 239 238 237 236 234 234 234 235 235 234 233 231 230 230 229 230 230 228 225 224 224 224 224 225 225 226 227 224 222 222 224 227 229 228 227 228 229 229 227 227 229 232 232 231 230 228 228 230 232 233 234 236 237 237 238 240
287 287 287 288 289 292 293 292 292 291 290 288 283 279 276 275 273 271 269 267 264 262 260 257 254 252 249 245 240 238 237 236 235 233 232 233 233 234 234 232 230 231 231 230 229 229 228 226 224 223 223 222 223 224 224 226 226 224 222 222 225 227 228 229 229 230 231 232 231 230 231 233 231 231 230 229 230 233 235 236 237 238 238 237 238
289 289 290 292 295 295 293 292 292 294 295 295 294 291 286 283 280 276 273 270 266 263 259 256 253 250 248 244 239 236 235 234 234 232 231 231 232 232 233 232 229 230 231 230 229 227 228 228 224 222 222 222 222 223 223 224 225 224 222 221 223 226 226 228 230 231 231 234 235 234 233 233 233 233 232 231 231 234 237 238 239 240 240 239 239
293 293 294 297 297 293 291 291 294 296 298 299 299 296 292 290 287 284 280 277 272 266 259 255 252 248 246 243 237 233 232 232 231 231 229 230 230 230 231 231 229 229 229 230 229 226 227 229 225 222 222 221 221 222 223 224 225 224 222 221 222 223 224 225 228 230 232 234 236 237 235 234 235 234 234 233 232 234 238 240 241 243 243 242 242
293 292 294 295 291 287 288 291 293 295 298 301 299 296 293 292 290 288 287 285 280 272 262 256 251 246 242 240 235 231 229 229 229 228 227 227 228 228 229 230 229 228 228 229 229 227 228 230 225 220 221 221 220 221 222 224 225 225 224 223 222 221 222 222 224 227 230 232 235 237 236 236 235 235 235 234 233 235 239 241 242 244 246 246 246
295 295 294 289 282 283 290 293 295 299 303 303 301 298 294 291 290 290 289 287 285 277 266 258 251 242 235 234 233 229 226 226 226 225 224 225 226 226 227 228 228 227 227 228 229 228 230 231 225 220 220 221 220 220 221 222 224 226 227 227 225 223 223 223 224 227 229 231 233 235 236 236 235 235 235 234 233 234 238 241 243 245 248 249 249
306 303 296 286 281 287 295 298 301 303 303 302 303 304 302 298 297 298 295 291 287 279 268 260 249 236 228 228 230 228 225 224 223 221 221 222 224 225 226 227 227 226 227 229 230 230 231 231 226 220 220 221 220 220 221 222 223 225 227 228 228 227 226 225 226 229 231 232 233 234 235 236 235 235 235 234 233 234 238 240 242 244 247 249 250
314 307 296 288 287 294 300 302 303 303 302 305 309 312 313 312 309 305 302 298 289 279 269 259 244 229 222 223 228 228 225 223 220 218 218 219 221 224 224 226 227 226 227 229 230 231 232 231 226 221 219 220 221 220 220 221 222 223 225 226 228 228 227 226 226 228 231 233 233 234 234 235 235 234 234 234 233 233 236 239 240 241 245 248 251
318 307 298 292 294 301 305 306 306 307 311 317 320 323 323 321 315 310 307 304 292 277 267 257 239 224 218 220 225 227 225 222 219 216 216 216 219 222 223 224 226 227 227 229 230 231 232 231 227 222 219 219 221 221 220 221 222 222 223 224 226 228 228 227 227 228 230 231 233 234 234 234 234 234 234 234 233 233 236 239 241 241 244 248 251
321 309 302 297 300 307 310 311 314 317 324 328 331 335 333 328 323 317 313 310 297 276 262 252 235 223 219 219 221 224 224 221 217 215 214 215 218 221 223 224 226 228 228 230 231 232 232 230 227 223 219 219 221 221 221 221 222 221 222 223 225 227 228 228 228 229 230 231 232 233 233 233 233 233 234 234 235 235 237 240 243 243 244 246 248
325 314 307 295 295 304 305 312 322 328 330 332 334 338 337 332 331 330 324 318 304 278 259 250 237 224 218 217 217 219 221 220 217 214 213 214 217 221 223 224 227 228 229 231 232 233 233 231 227 224 220 219 221 221 221 221 222 221 221 221 223 226 229 230 230 231 232 233 231 230 232 233 232 233 234 235 237 239 239 240 243 245 246 247 248
334 323 317 303 297 304 303 312 329 337 334 331 333 339 337 330 330 334 334 330 315 282 256 243 234 223 214 211 212 214 216 217 216 213 212 214 217 222 224 224 226 228 230 231 233 235 235 232 228 224 221 219 221 221 221 221 222 221 220 220 222 225 228 231 232 233 235 235 231 230 234 234 232 233 236 236 239 241 242 242 244 246 248 249 250
343 333 327 318 313 319 313 313 327 337 336 329 326 328 328 323 324 331 333 333 328 291 251 227 215 211 208 206 208 211 211 211 211 211 213 215 219 223 225 226 227 229 231 233 236 237 236 233 229 225 222 220 221 222 222 222 222 221 221 220 221 224 227 230 233 234 236 234 230 231 235 234 232 235 238 238 239 242 243 244 244 246 248 250 252
349 344 336 325 321 325 322 315 318 327 334 335 328 322 322 326 329 332 336 342 346 310 239 212 196 190 190 193 198 199 198 200 203 205 210 214 217 221 225 227 229 232 234 235 237 238 237 233 229 226 223 222 222 222 222 222 221 222 221 221 221 223 226 229 232 235 235 233 231 231 233 233 233 236 238 239 240 242 245 246 246 246 247 249 252
352 349 343 335 328 327 324 319 317 318 330 341 338 328 327 334 334 326 344 6 14 22 200 201 191 184 181 181 183 184 186 191 197 201 206 211 214 218 221 223 226 230 233 236 237 237 236 232 228 226 225 223 222 222 222 221 221 222 222 221 222 223 225 228 231 233 234 234 232 232 233 234 236 238 239 241 242 244 245 247 247 246 245 247 252
355 352 347 340 333 326 322 320 315 311 321 336 341 337 335 340 336 317 287 338 19 38 128 179 182 182 184 184 183 185 188 193 198 203 206 210 213 216 217 220 224 227 228 229 230 231 232 230 228 227 226 224 222 221 221 220 221 222 223 222 222 222 224 227 230 231 232 234 234 233 234 235 237 239 242 243 244 246 248 247 246 245 245 246 249
356 354 348 338 330 324 320 317 314 314 319 328 337 340 338 344 349 341 315 251 252 346 146 175 178 179 183 186 189 192 196 199 204 208 213 215 216 217 218 221 223 223 221 220 221 223 227 228 228 228 226 224 222 221 221 220 220 221 223 222 222 222 224 226 229 230 231 232 233 235 236 236 237 239 242 243 244 246 248 247 245 243 243 244 247
357 357 351 340 328 320 316 313 311 316 325 329 333 337 337 345 360 4 7 358 246 242 222 197 193 189 186 188 194 200 202 205 208 212 218 220 220 220 221 222 223 223 223 222 222 222 224 227 229 228 226 224 223 222 221 220 219 220 222 222 222 223 224 225 228 229 230 231 232 234 236 237 237 238 240 243 244 245 247 247 245 244 244 245 246
357 358 355 348 336 322 315 312 310 311 320 329 337 342 342 346 360 14 25 37 33 264 254 243 227 214 203 199 203 207 210 212 215 217 220 221 221 222 224 224 225 226 227 228 228 227 226 225 226 226 225 225 225 223 222 221 219 220 222 222 222 223 224 225 227 229 229 230 231 233 235 237 238 238 239 242 243 243 245 247 248 247 247 247 247
357 358 357 353 346 334 318 312 312 310 312 324 346 1 355 350 357 12 29 50 72 108 224 257 262 255 244 232 225 223 221 220 222 224 225 226 226 227 227 228 229 231 230 228 229 230 229 227 228 228 226 225 226 225 223 222 220 220 222 222 223 224 225 226 227 229 230 230 231 233 234 236 239 239 239 240 242 243 244 245 247 248 248 247 246
355 358 359 356 350 343 330 316 312 309 297 299 333 357 358 353 351 354 13 51 102 151 185 219 243 255 259 257 252 246 240 235 232 232 231 231 231 232 232 233 234 236 235 231 230 229 228 228 233 233 227 224 225 226 225 223 222 222 223 223 224 225 227 228 228 229 230 231 232 233 234 236 238 239 239 240 241 243 244 245 246 247 249 249 248
353 356 359 360 355 348 338 324 315 311 291 265 277 301 309 313 311 299 292 303 200 185 205 224 232 242 253 258 259 258 255 250 246 243 240 238 239 239 238 238 237 238 238 236 233 232 230 231 237 236 228 224 224 225 225 225 225 225 225 225 224 226 228 229 229 230 231 232 233 234 235 236 237 238 239 240 241 243 244 245 246 249 251 252 253
352 354 357 1 0 355 346 333 318 313 305 276 269 280 289 293 291 278 271 266 246 235 248 246 241 242 247 252 255 257 258 258 256 254 252 249 248 247 245 243 241 239 238 237 236 236 236 238 240 237 231 228 228 227 227 226 226 227 229 228 227 227 229 230 231 231 232 233 234 234 235 235 235 236 237 240 242 244 245 246 248 250 252 253 255
352 354 356 0 3 1 356 346 330 316 317 308 287 279 282 288 290 281 277 273 261 260 269 268 259 254 251 251 250 250 252 255 258 259 259 257 255 255 253 249 244 241 240 238 237 237 238 238 236 235 233 233 232 231 229 227 225 227 231 232 230 229 230 231 232 233 234 234 234 234 234 234 234 235 236 239 242 244 245 247 249 250 251 253 255
351 353 355 0 5 5 1 358 349 332 325 326 316 299 288 287 293 294 292 289 283 280 281 282 281 277 269 261 256 252 253 258 263 266 265 264 264 262 260 256 250 243 240 240 239 238 239 237 234 233 233 234 233 232 232 229 226 227 231 234 233 232 232 233 233 234 234 233 233 233 234 234 235 236 236 238 241 244 245 247 249 250 251 253 254
352 354 356 0 5 7 5 3 360 349 339 335 327 315 302 291 290 296 301 302 296 288 283 280 280 279 272 265 264 264 263 265 270 273 273 277 279 268 259 262 258 246 238 238 238 238 239 238 237 235 234 233 233 234 234 232 229 228 231 235 236 234 233 234 234 234 234 233 232 233 234 235 236 237 237 238 240 242 244 246 248 250 251 253 254
Height
5719 5722 5726 5731 5734 5736 5739 5742 5744 5746 5749 5751 5753 5755 5757 5758 5760 5764 5769 5774 5777 5779 5782 5784 5786 5787 5788 5788 5789 5789 5792 5797 5801 5804 5807 5810 5812 5815 5817 5820 5822 5824 5826 5827 5829 5830 5831 5832 5833 5834 5837 5838 5839 5840 5842 5843 5844 5846 5847 5847 5848 5850 5851 5851 5852 5852 5853 5853 5854 5854 5854 5854 5854 5854 5854 5854 5854 5854 5855 5856 5857 5857 5856 5855 5854
5716 5719 5722 5726 5730 5733 5735 5738 5740 5743 5746 5748 5751 5753 5754 5755 5756 5759 5765 5769 5772 5775 5778 5780 5780 5781 5783 5785 5787 5789 5792 5796 5799 5802 5805 5808 5811 5814 5816 5818 5820 5822 5824 5825 5827 5828 5829 5830 5831 5832 5833 5836 5836 5838 5840 5841 5843 5844 5845 5846 5847 5848 5849 5850 5851 5852 5853 5853 5853 5854 5854 5854 5854 5854 5854 5853 5853 5853 5854 5855 5856 5856 5856 5855 5854
5714 5716 5718 5722 5726 5729 5731 5734 5737 5740 5742 5745 5747 5749 5752 5754 5755 5756 5759 5763 5766 5769 5772 5773 5774 5776 5779 5783 5785 5788 5792 5794 5797 5800 5803 5806 5809 5812 5814 5816 5817 5819 5821 5823 5825 5826 5827 5828 5828 5828 5829 5832 5834 5835 5838 5839 5841 5842 5843 5844 5845 5847 5848 5849 5850 5851 5852 5853 5853 5853 5853 5854 5854 5854 5854 5853 5853 5853 5854 5854 5855 5855 5855 5855 5854
5712 5713 5715 5718 5722 5725 5727 5730 5733 5736 5739 5742 5744 5746 5748 5751 5753 5756 5758 5760 5762 5764 5767 5769 5771 5773 5776 5780 5783 5786 5789 5792 5796 5799 5802 5805 5807 5809 5811 5813 5814 5816 5818 5820 5822 5824 5825 5826 5826 5825 5826 5829 5831 5833 5835 5837 5839 5840 5841 5842 5844 5845 5847 5848 5849 5850 5851 5852 5853 5853 5853 5853 5854 5854 5854 5854 5853 5853 5853 5854 5854 5855 5855 5855 5854
5710 5711 5712 5715 5718 5720 5723 5725 5728 5732 5735 5738 5741 5743 5745 5747 5750 5753 5755 5758 5760 5761 5764 5766 5769 5772 5775 5778 5781 5784 5787 5791 5794 5798 5800 5803 5804 5806 5807 5809 5811 5813 5815 5817 5819 5821 5823 5824 5824 5824 5825 5828 5830 5831 5833 5835 5837 5838 5840 5841 5842 5844 5845 5846 5848 5849 5851 5851 5852 5853 5853 5853 5854 5854 5854 5854 5853 5853 5853 5853 5853 5854 5854 5854 5854
5708 5709 5710 5712 5715 5717 5719 5721 5723 5727 5731 5734 5737 5739 5742 5744 5747 5749 5751 5755 5759 5761 5762 5764 5766 5770 5773 5776 5779 5782 5785 5789 5792 5795 5797 5799 5801 5802 5804 5806 5808 5811 5812 5814 5817 5819 5820 5822 5823 5824 5825 5827 5829 5830 5831 5833 5835 5836 5838 5840 5841 5842 5843 5845 5847 5849 5850 5851 5851 5852 5852 5852 5853 5853 5853 5853 5853 5853 5852 5852 5853 5853 5853 5854 5853
5706 5707 5708 5709 5711 5714 5716 5717 5719 5722 5725 5729 5732 5735 5738 5741 5743 5746 5748 5751 5756 5759 5761 5763 5764 5767 5770 5774 5777 5780 5783 5786 5789 5791 5793 5795 5797 5799 5801 5803 5806 5808 5810 5812 5814 5816 5818 5820 5821 5822 5824 5826 5827 5829 5830 5832 5833 5835 5836 5838 5839 5840 5842 5843 5845 5847 5849 5850 5850 5851 5851 5851 5852 5853 5853 5852 5852 5852 5852 5852 5852 5852 5853 5853 5853
5704 5705 5706 5707 5708 5710 5712 5714 5716 5718 5720 5724 5727 5730 5733 5736 5740 5742 5744 5747 5751 5755 5759 5762 5763 5764 5766 5769 5772 5776 5779 5782 5785 5787 5789 5791 5794 5796 5798 5801 5803 5804 5807 5809 5811 5813 5815 5817 5819 5820 5822 5824 5825 5827 5828 5830 5831 5833 5834 5836 5837 5838 5840 5842 5844 5846 5847 5848 5849 5850 5850 5850 5851 5852 5852 5852 5852 5852 5852 5852 5852 5852 5852 5852 5853
5702 5703 5704 5705 5706 5707 5708 5710 5712 5714 5716 5719 5722 5725 5728 5731 5734 5738 5740 5743 5747 5750 5754 5758 5760 5761 5762 5764 5768 5771 5774 5776 5779 5781 5784 5787 5790 5792 5795 5797 5799 5801 5803 5805 5807 5810 5812 5814 5816 5818 5819 5821 5823 5825 5826 5827 5829 5830 5832 5834 5836 5837 5838 5839 5842 5844 5845 5847 5848 5848 5849 5849 5850 5850 5851 5851 5851 5851 5851 5851 5851 5852 5851 5852 5852
5699 5701 5702 5703 5704 5705 5705 5706 5708 5709 5711 5713 5716 5719 5722 5725 5729 5732 5735 5738 5742 5745 5748 5752 5754 5755 5757 5760 5764 5766 5768 5770 5773 5775 5778 5782 5785 5788 5790 5793 5796 5798 5800 5802 5804 5806 5808 5811 5812 5814 5816 5818 5819 5821 5823 5824 5826 5828 5830 5831 5833 5835 5836 5837 5839 5841 5843 5845 5846 5847 5847 5848 5848 5849 5850 5850 5850 5851 5851 5851 5851 5851 5851 5851 5851
5696 5698 5699 5700 5702 5703 5703 5704 5704 5705 5707 5709 5711 5713 5716 5719 5722 5726 5729 5732 5735 5739 5742 5746 5748 5749 5751 5754 5758 5761 5763 5765 5767 5769 5772 5776 5780 5783 5786 5788 5791 5794 5796 5798 5800 5802 5805 5807 5809 5811 5813 5814 5815 5816 5818 5821 5822 5825 5827 5828 5831 5833 5834 5835 5837 5839 5841 5842 5843 5845 5846 5846 5847 5847 5848 5849 5850 5850 5850 5850 5850 5850 5850 5850 5850
5694 5695 5696 5697 5699 5700 5701 5701 5702 5702 5703 5704 5706 5707 5710 5713 5716 5719 5722 5725 5728 5732 5735 5739 5742 5744 5745 5748 5752 5755 5756 5759 5761 5763 5766 5770 5773 5777 5781 5783 5786 5789 5792 5794 5796 5798 5801 5803 5805 5807 5809 5811 5811 5812 5814 5817 5819 5821 5823 5825 5828 5830 5831 5833 5834 5836 5838 5840 5841 5842 5843 5845 5845 5846 5846 5847 5848 5849 5849 5849 5850 5850 5850 5849 5849
5691 5692 5693 5694 5696 5697 5698 5699 5699 5699 5700 5701 5702 5703 5704 5706 5709 5712 5715 5718 5721 5724 5728 5731 5735 5737 5738 5741 5746 5750 5750 5752 5755 5758 5761 5764 5767 5771 5775 5777 5781 5785 5788 5790 5793 5794 5796 5799 5802 5804 5806 5808 5809 5810 5812 5814 5815 5818 5820 5822 5825 5827 5828 5830 5832 5833 5835 5837 5838 5839 5841 5842 5844 5844 5845 5846 5847 5848 5848 5848 5849 5849 5849 5849 5848
5690 5689 5690 5691 5693 5694 5695 5695 5696 5695 5696 5697 5698 5699 5701 5702 5703 5705 5708 5711 5713 5716 5720 5723 5727 5730 5732 5734 5738 5743 5745 5747 5749 5752 5756 5758 5761 5765 5768 5771 5775 5780 5783 5786 5788 5790 5792 5795 5798 5800 5801 5803 5805 5807 5809 5811 5812 5815 5817 5819 5821 5823 5825 5827 5829 5831 5832 5834 5836 5837 5839 5840 5842 5843 5844 5844 5845 5846 5847 5847 5848 5848 5848 5848 5848
5688 5688 5687 5688 5689 5690 5691 5692 5693 5693 5692 5692 5693 5695 5697 5698 5699 5700 5702 5704 5706 5709 5712 5715 5718 5721 5724 5726 5729 5733 5738 5741 5743 5746 5749 5753 5756 5759 5762 5765 5769 5773 5777 5781 5783 5785 5787 5790 5792 5794 5795 5797 5800 5803 5805 5807 5809 5811 5813 5815 5818 5820 5823 5825 5826 5828 5830 5832 5834 5835 5836 5837 5839 5841 5842 5843 5844 5845 5845 5846 5846 5847 5847 5847 5847
5687 5686 5685 5685 5685 5686 5687 5688 5689 5689 5689 5689 5689 5690 5691 5693 5695 5696 5697 5699 5700 5702 5704 5707 5709 5712 5715 5718 5721 5724 5728 5732 5736 5739 5742 5746 5749 5752 5755 5759 5762 5767 5771 5775 5778 5780 5782 5784 5787 5789 5791 5793 5796 5798 5800 5803 5805 5808 5809 5811 5814 5817 5820 5822 5824 5825 5827 5829 5831 5832 5833 5835 5837 5839 5840 5841 5842 5843 5844 5844 5845 5845 5846 5846 5846
5685 5685 5684 5683 5683 5683 5683 5684 5684 5685 5686 5686 5686 5686 5686 5688 5689 5691 5692 5694 5695 5696 5698 5700 5702 5704 5707 5709 5713 5715 5718 5722 5727 5731 5735 5738 5742 5746 5749 5752 5756 5760 5764 5768 5772 5774 5777 5779 5781 5784 5789 5792 5794 5796 5798 5800 5802 5804 5806 5808 5810 5813 5816 5819 5821 5823 5825 5826 5828 5830 5831 5833 5834 5836 5838 5839 5840 5841 5842 5842 5843 5843 5844 5845 5845
5681 5682 5681 5681 5680 5680 5680 5680 5680 5681 5681 5682 5682 5682 5683 5683 5684 5685 5687 5688 5690 5690 5692 5693 5695 5697 5700 5702 5704 5707 5710 5713 5717 5722 5725 5729 5733 5739 5743 5746 5750 5754 5758 5762 5765 5768 5770 5773 5776 5780 5784 5787 5790 5792 5795 5797 5799 5800 5803 5805 5807 5809 5811 5815 5818 5820 5822 5823 5825 5827 5829 5830 5832 5834 5835 5837 5838 5839 5840 5840 5840 5841 5842 5843 5843
5678 5678 5677 5677 5676 5677 5677 5676 5676 5677 5677 5677 5677 5678 5678 5679 5679 5679 5680 5682 5683 5684 5685 5687 5688 5690 5693 5695 5697 5699 5702 5705 5709 5712 5716 5720 5725 5731 5736 5740 5743 5747 5751 5755 5758 5761 5765 5768 5771 5775 5779 5782 5784 5787 5790 5793 5795 5797 5799 5802 5804 5806 5807 5810 5814 5817 5819 5821 5822 5824 5826 5828 5829 5831 5832 5834 5836 5837 5837 5838 5838 5839 5840 5841 5842
5675 5675 5674 5674 5673 5672 5673 5673 5672 5672 5672 5672 5673 5673 5673 5674 5674 5674 5674 5675 5676 5677 5679 5680 5682 5683 5686 5688 5690 5692 5695 5698 5701 5704 5707 5711 5716 5721 5727 5732 5735 5739 5743 5747 5751 5755 5758 5762 5766 5769 5773 5776 5779 5782 5786 5788 5790 5793 5795 5798 5801 5802 5804 5806 5810 5813 5816 5817 5819 5821 5823 5825 5826 5828 5829 5831 5833 5834 5835 5835 5836 5837 5838 5839 5839
5672 5671 5671 5671 5670 5669 5668 5668 5667 5667 5666 5667 5667 5667 5667 5667 5668 5668 5668 5669 5669 5670 5672 5673 5674 5675 5678 5681 5683 5685 5687 5690 5693 5697 5699 5703 5708 5713 5718 5724 5727 5731 5736 5740 5743 5748 5752 5756 5760 5764 5767 5771 5774 5777 5780 5783 5785 5788 5791 5794 5797 5799 5801 5803 5805 5809 5812 5814 5816 5818 5820 5822 5823 5825 5826 5828 5830 5832 5832 5833 5834 5835 5836 5836 5837
5668 5667 5666 5666 5665 5664 5664 5663 5662 5662 5661 5661 5660 5660 5660 5660 5661 5661 5661 5662 5662 5663 5664 5665 5666 5667 5669 5672 5675 5678 5680 5682 5685 5689 5693 5696 5701 5706 5710 5715 5719 5723 5727 5732 5735 5740 5746 5750 5754 5758 5761 5765 5768 5771 5774 5778 5780 5784 5787 5789 5792 5794 5797 5799 5801 5804 5807 5810 5812 5815 5816 5818 5820 5822 5823 5825 5827 5829 5830 5830 5831 5832 5833 5834 5835
5662 5661 5661 5661 5660 5659 5658 5657 5657 5656 5656 5655 5655 5654 5654 5653 5653 5653 5653 5653 5653 5654 5655 5656 5658 5660 5661 5663 5666 5670 5673 5675 5678 5682 5686 5690 5693 5699 5703 5708 5712 5715 5719 5724 5728 5733 5739 5743 5747 5751 5755 5760 5763 5766 5769 5772 5776 5779 5782 5785 5787 5789 5792 5795 5797 5800 5803 5806 5808 5810 5812 5814 5816 5818 5820 5822 5824 5826 5827 5828 5828 5829 5830 5832 5833
5658 5656 5655 5655 5654 5654 5653 5651 5651 5650 5649 5649 5648 5648 5647 5646 5645 5645 5645 5645 5644 5645 5645 5646 5648 5650 5652 5654 5657 5661 5664 5668 5671 5675 5679 5683 5686 5691 5696 5700 5705 5708 5711 5716 5721 5725 5731 5736 5741 5745 5749 5753 5758 5761 5764 5767 5771 5774 5777 5780 5782 5784 5787 5790 5793 5795 5798 5801 5804 5806 5808 5810 5812 5814 5817 5819 5821 5823 5824 5825 5825 5826 5827 5829 5830
5654 5652 5651 5650 5649 5648 5646 5645 5644 5643 5643 5642 5641 5640 5640 5639 5638 5637 5637 5637 5637 5636 5637 5637 5638 5640 5643 5646 5648 5651 5655 5660 5664 5668 5673 5676 5679 5683 5689 5693 5697 5701 5704 5708 5712 5717 5723 5730 5734 5739 5743 5747 5752 5756 5759 5762 5765 5768 5771 5774 5776 5778 5781 5785 5788 5791 5793 5796 5799 5801 5803 5806 5808 5811 5813 5815 5817 5819 5821 5821 5822 5822 5824 5825 5827
5649 5648 5647 5645 5644 5643 5641 5639 5637 5637 5636 5636 5635 5634 5633 5632 5632 5631 5630 5630 5629 5629 5628 5629 5629 5630 5633 5636 5640 5642 5646 5650 5656 5661 5665 5669 5672 5676 5680 5686 5690 5694 5696 5700 5704 5710 5717 5723 5728 5732 5736 5741 5745 5749 5753 5756 5759 5762 5765 5768 5770 5772 5775 5779 5783 5786 5789 5791 5794 5796 5798 5801 5805 5807 5809 5812 5814 5815 5817 5818 5818 5819 5820 5822 5824
5644 5643 5642 5641 5639 5638 5636 5633 5631 5631 5630 5630 5629 5628 5627 5626 5625 5624 5623 5622 5621 5620 5619 5619 5620 5621 5622 5626 5630 5633 5637 5641 5646 5652 5657 5661 5665 5669 5673 5678 5683 5687 5689 5693 5698 5704 5709 5716 5721 5726 5730 5734 5738 5742 5746 5751 5754 5757 5759 5761 5764 5766 5769 5773 5777 5780 5784 5786 5789 5792 5794 5797 5801 5804 5806 5808 5810 5812 5813 5814 5815 5816 5817 5819 5821
5638 5637 5636 5635 5634 5632 5630 5628 5626 5625 5624 5623 5621 5620 5619 5618 5617 5615 5614 5613 5612 5611 5609 5609 5610 5611 5613 5616 5620 5624 5627 5631 5636 5643 5649 5653 5658 5662 5666 5671 5676 5680 5683 5687 5692 5697 5701 5707 5714 5719 5723 5727 5730 5734 5739 5744 5748 5751 5753 5755 5757 5760 5763 5767 5771 5774 5778 5781 5784 5787 5790 5793 5797 5800 5802 5805 5807 5808 5810 5811 5812 5813 5814 5816 5818
5634 5632 5631 5630 5629 5627 5625 5623 5622 5621 5619 5618 5616 5614 5611 5610 5608 5606 5605 5603 5602 5600 5599 5599 5599 5601 5603 5606 5610 5614 5618 5622 5627 5633 5640 5646 5651 5655 5659 5664 5669 5674 5678 5682 5687 5691 5695 5700 5707 5712 5716 5719 5723 5728 5733 5736 5740 5744 5747 5748 5749 5752 5756 5760 5764 5768 5771 5775 5779 5782 5786 5789 5793 5796 5799 5801 5803 5805 5806 5807 5809 5809 5811 5813 5815
5631 5630 5628 5627 5625 5623 5622 5621 5620 5618 5616 5614 5612 5609 5606 5604 5601 5599 5596 5594 5592 5590 5590 5590 5590 5592 5595 5597 5601 5606 5610 5614 5618 5624 5632 5639 5644 5649 5653 5658 5664 5668 5672 5676 5680 5685 5689 5694 5699 5704 5709 5713 5717 5721 5725 5729 5733 5737 5740 5741 5742 5745 5748 5751 5755 5760 5764 5769 5773 5777 5781 5785 5788 5792 5794 5797 5799 5801 5802 5804 5805 5806 5808 5810 5812
5628 5627 5625 5623 5621 5620 5619 5618 5616 5615 5613 5610 5608 5605 5602 5599 5596 5593 5590 5586 5584 5582 5581 5581 5581 5583 5586 5590 5594 5598 5602 5606 5610 5616 5624 5631 5637 5643 5647 5652 5658 5662 5666 5670 5674 5679 5683 5687 5692 5697 5702 5706 5711 5714 5717 5721 5726 5731 5734 5736 5739 5742 5745 5748 5752 5755 5759 5763 5767 5771 5775 5779 5783 5786 5789 5792 5794 5797 5798 5799 5801 5803 5804 5806 5808
5624 5623 5621 5619 5618 5617 5616 5615 5613 5611 5609 5606 5604 5601 5598 5594 5591 5587 5583 5580 5577 5574 5573 5573 5572 5574 5578 5583 5587 5591 5595 5599 5603 5609 5617 5624 5631 5637 5642 5646 5651 5656 5660 5664 5669 5674 5677 5680 5685 5689 5694 5700 5704 5707 5710 5715 5720 5724 5729 5733 5737 5740 5743 5747 5751 5754 5757 5759 5762 5766 5769 5773 5777 5781 5784 5787 5789 5792 5794 5795 5797 5799 5800 5802 5804
5620 5619 5617 5616 5614 5613 5612 5611 5609 5607 5605 5602 5600 5596 5593 5589 5586 5582 5578 5575 5571 5568 5567 5566 5566 5567 5572 5578 5582 5586 5589 5593 5598 5604 5611 5619 5626 5631 5637 5641 5645 5649 5654 5659 5664 5667 5670 5673 5677 5682 5687 5693 5697 5700 5704 5709 5714 5719 5724 5729 5733 5736 5739 5742 5746 5749 5752 5754 5757 5760 5764 5767 5771 5775 5778 5781 5784 5787 5788 5790 5792 5794 5795 5797 5799
5617 5615 5614 5612 5611 5610 5609 5608 5606 5604 5601 5598 5595 5592 5588 5585 5581 5577 5574 5570 5567 5564 5562 5562 5562 5564 5568 5573 5578 5582 5585 5589 5593 5599 5606 5614 5621 5626 5632 5636 5639 5643 5648 5653 5657 5660 5662 5666 5671 5675 5680 5686 5690 5693 5697 5702 5708 5714 5719 5724 5728 5731 5734 5737 5740 5743 5746 5749 5751 5754 5758 5762 5765 5768 5771 5775 5778 5781 5783 5784 5786 5788 5791 5793 5794
5614 5613 5611 5610 5609 5607 5606 5605 5603 5600 5597 5594 5591 5588 5585 5582 5578 5574 5570 5567 5563 5561 5560 5560 5561 5563 5566 5570 5575 5579 5583 5586 5590 5596 5603 5611 5617 5622 5627 5630 5633 5637 5643 5647 5650 5652 5655 5659 5664 5668 5674 5679 5682 5687 5692 5696 5702 5708 5714 5719 5723 5725 5728 5731 5734 5737 5739 5742 5745 5748 5752 5756 5759 5762 5766 5769 5773 5776 5778 5779 5781 5783 5786 5788 5789
5612 5610 5609 5608 5607 5606 5604 5602 5600 5597 5594 5591 5589 5586 5583 5580 5577 5573 5568 5565 5561 5560 5559 5559 5560 5562 5565 5569 5573 5577 5581 5584 5589 5594 5601 5608 5613 5618 5622 5625 5629 5633 5638 5641 5643 5646 5650 5654 5658 5662 5668 5672 5676 5681 5686 5691 5696 5702 5708 5713 5717 5720 5722 5725 5728 5731 5733 5736 5739 5742 5746 5750 5753 5757 5761 5765 5768 5770 5772 5774 5776 5778 5781 5783 5784
5610 5608 5607 5606 5605 5604 5602 5600 5597 5595 5592 5589 5586 5584 5582 5579 5576 5572 5568 5564 5561 5559 5558 5558 5559 5562 5565 5568 5572 5576 5580 5584 5588 5594 5601 5607 5611 5615 5618 5622 5626 5629 5633 5636 5638 5641 5646 5650 5654 5657 5662 5666 5670 5675 5680 5685 5690 5696 5702 5707 5711 5714 5716 5719 5723 5727 5729 5731 5735 5738 5742 5745 5748 5752 5756 5760 5763 5764 5766 5769 5771 5773 5776 5777 5780
5609 5607 5605 5603 5602 5601 5599 5597 5595 5593 5590 5588 5586 5583 5581 5579 5576 5573 5568 5564 5561 5559 5559 5558 5559 5561 5564 5568 5572 5576 5580 5585 5590 5595 5601 5606 5610 5613 5617 5620 5623 5626 5630 5633 5635 5637 5642 5646 5649 5652 5657 5662 5666 5670 5675 5680 5685 5690 5696 5702 5705 5708 5711 5714 5718 5722 5724 5727 5731 5735 5738 5740 5744 5748 5751 5755 5757 5758 5760 5763 5766 5768 5771 5772 5775
5607 5605 5603 5601 5599 5598 5596 5594 5593 5592 5590 5588 5585 5582 5580 5578 5576 5573 5569 5565 5562 5561 5561 5560 5560 5562 5564 5567 5571 5575 5579 5583 5588 5593 5598 5603 5606 5610 5613 5616 5619 5622 5625 5627 5630 5633 5637 5641 5645 5649 5653 5657 5661 5664 5669 5675 5680 5685 5690 5695 5699 5703 5706 5710 5713 5716 5720 5723 5727 5731 5734 5736 5739 5743 5746 5749 5752 5752 5754 5757 5761 5763 5765 5767 5770
5605 5602 5600 5599 5597 5596 5594 5593 5591 5590 5589 5587 5584 5581 5579 5577 5575 5573 5571 5568 5565 5564 5563 5562 5561 5562 5564 5566 5568 5571 5575 5579 5584 5588 5592 5596 5600 5602 5604 5607 5611 5614 5618 5621 5624 5628 5633 5637 5641 5645 5648 5652 5655 5659 5664 5670 5675 5679 5684 5689 5694 5698 5702 5706 5709 5711 5715 5719 5722 5725 5729 5732 5735 5737 5740 5744 5746 5747 5748 5751 5754 5757 5759 5763 5766
5603 5600 5598 5597 5595 5594 5593 5592 5590 5589 5587 5586 5583 5580 5578 5576 5575 5573 5572 5570 5569 5568 5566 5565 5564 5565 5566 5568 5570 5572 5576 5580 5583 5586 5589 5592 5596 5599 5601 5603 5604 5607 5610 5614 5619 5623 5628 5632 5635 5640 5643 5646 5649 5653 5658 5664 5669 5674 5678 5683 5688 5693 5698 5701 5703 5706 5710 5713 5716 5719 5723 5727 5730 5733 5735 5738 5740 5742 5743 5745 5748 5750 5754 5758 5761
5603 5600 5598 5596 5595 5593 5592 5591 5589 5588 5586 5584 5582 5579 5577 5576 5574 5573 5572 5571 5571 5571 5570 5569 5568 5568 5569 5572 5574 5577 5580 5583 5585 5588 5590 5592 5594 5597 5601 5602 5603 5604 5606 5610 5615 5619 5623 5627 5631 5635 5639 5642 5644 5648 5652 5658 5664 5668 5672 5678 5683 5688 5692 5695 5698 5701 5704 5708 5711 5713 5716 5720 5724 5727 5728 5731 5734 5736 5736 5738 5741 5744 5747 5752 5754
5604 5601 5598 5596 5594 5592 5590 5589 5588 5587 5585 5584 5581 5579 5577 5576 5574 5574 5573 5572 5572 5572 5572 5571 5571 5570 5572 5574 5576 5578 5580 5583 5585 5587 5590 5591 5592 5595 5598 5600 5602 5603 5606 5609 5612 5615 5618 5623 5627 5631 5635 5638 5640 5643 5647 5652 5658 5662 5666 5672 5677 5682 5685 5688 5692 5695 5699 5702 5704 5707 5710 5713 5717 5720 5722 5724 5727 5729 5729 5731 5734 5737 5740 5744 5746
5604 5601 5598 5595 5593 5591 5589 5587 5587 5586 5584 5583 5581 5579 5578 5577 5575 5575 5574 5573 5573 5573 5573 5572 5572 5572 5574 5576 5577 5579 5581 5583 5584 5586 5588 5590 5591 5593 5595 5598 5599 5601 5603 5606 5609 5611 5615 5619 5622 5626 5630 5633 5635 5638 5642 5647 5651 5656 5660 5665 5671 5675 5678 5682 5685 5689 5693 5696 5698 5701 5704 5707 5711 5714 5716 5717 5719 5721 5722 5725 5727 5729 5732 5736 5738
5604 5601 5598 5595 5592 5590 5588 5586 5585 5584 5583 5582 5581 5580 5578 5578 5577 5576 5576 5575 5575 5575 5575 5574 5574 5574 5575 5576 5578 5580 5582 5584 5585 5587 5588 5589 5590 5592 5594 5596 5597 5598 5600 5603 5605 5607 5610 5615 5618 5620 5623 5627 5630 5632 5636 5641 5645 5649 5653 5658 5663 5668 5672 5675 5679 5683 5687 5690 5693 5696 5699 5702 5705 5708 5710 5711 5713 5715 5717 5719 5721 5723 5724 5727 5729
5603 5600 5597 5594 5591 5588 5586 5584 5583 5583 5582 5581 5580 5579 5579 5578 5578 5577 5577 5577 5576 5576 5576 5576 5575 5575 5575 5576 5578 5580 5582 5584 5585 5586 5587 5588 5589 5590 5592 5594 5595 5596 5598 5600 5601 5603 5605 5609 5613 5614 5616 5619 5623 5626 5631 5635 5639 5643 5647 5652 5657 5661 5665 5669 5673 5677 5681 5684 5687 5691 5693 5696 5699 5702 5704 5706 5708 5710 5712 5714 5715 5717 5718 5720 5722
5602 5600 5597 5594 5591 5587 5584 5582 5581 5581 5581 5580 5579 5579 5578 5578 5578 5578 5578 5578 5577 5577 5577 5577 5577 5576 5576 5576 5576 5578 5579 5581 5583 5584 5585 5586 5587 5588 5589 5590 5591 5592 5593 5595 5597 5599 5602 5605 5607 5609 5611 5613 5617 5620 5625 5630 5634 5638 5642 5647 5651 5655 5659 5663 5668 5672 5676 5679 5682 5685 5688 5690 5693 5696 5698 5700 5702 5704 5706 5708 5710 5711 5712 5714 5717
5601 5599 5597 5594 5591 5587 5583 5581 5579 5579 5579 5579 5578 5578 5577 5577 5577 5577 5577 5577 5577 5577 5577 5577 5577 5578 5577 5577 5577 5577 5577 5579 5580 5581 5582 5583 5583 5584 5584 5584 5585 5586 5587 5589 5591 5594 5596 5599 5601 5604 5606 5609 5612 5616 5620 5625 5629 5633 5637 5641 5645 5649 5653 5657 5662 5667 5670 5672 5675 5678 5681 5683 5686 5689 5692 5694 5696 5698 5700 5702 5705 5706 5707 5709 5711
5601 5598 5596 5594 5591 5587 5583 5580 5578 5578 5577 5577 5577 5577 5576 5576 5576 5575 5575 5576 5576 5576 5576 5576 5577 5577 5577 5577 5577 5576 5577 5577 5578 5578 5578 5578 5578 5578 5578 5577 5578 5579 5580 5582 5584 5587 5589 5591 5595 5598 5602 5605 5609 5612 5615 5619 5623 5627 5630 5634 5638 5642 5646 5650 5655 5659 5661 5664 5668 5671 5674 5677 5680 5683 5686 5689 5691 5693 5695 5697 5699 5700 5702 5704 5705
5600 5597 5595 5593 5590 5587 5583 5580 5578 5577 5576 5576 5576 5576 5575 5575 5575 5574 5574 5573 5573 5573 5574 5574 5574 5574 5574 5575 5575 5575 5575 5576 5576 5576 5575 5575 5574 5573 5571 5569 5569 5571 5574 5576 5578 5581 5583 5586 5590 5594 5598 5601 5605 5607 5609 5613 5618 5622 5625 5627 5631 5636 5640 5643 5647 5650 5653 5657 5661 5664 5667 5671 5674 5678 5681 5684 5686 5687 5689 5691 5693 5695 5696 5697 5699
5600 5597 5595 5592 5590 5587 5584 5581 5578 5577 5576 5575 5574 5574 5574 5574 5574 5573 5572 5572 5572 5571 5572 5572 5572 5572 5572 5572 5573 5573 5573 5574 5574 5573 5573 5572 5571 5568 5565 5562 5561 5563 5567 5570 5573 5576 5579 5582 5585 5589 5592 5596 5600 5603 5605 5610 5614 5618 5621 5622 5625 5630 5634 5638 5640 5642 5645 5650 5655 5659 5662 5665 5669 5672 5675 5678 5680 5682 5683 5685 5687 5688 5690 5691 5692